Regional Weather Roundup
Issued by NWS Sterling, VA

Home | Current Version | Previous Version | Text Only | Print | Product List | Glossary Off
Versions: 1 2 3 4 5 6 7 8 9 10 11 12 13 14 15 16 17 18 19 20 21 22 23 24 25 26 27 28 29 30 31 32 33 34 35 36 37 38 39 40 41 42 43 44 45 46 47 48 49 50

000
ASUS41 KLWX 141811
RWRLWX

REGIONAL WEATHER ROUNDUP
NATIONAL WEATHER SERVICE BALTIMORE MD/WASHINGTON DC
100 PM EST THU DEC 14 2017

Note: "FAIR" indicates few or no clouds below 12,000 feet
with no significant weather and/or obstructions to visibility.
 TC=TEMPERATURE CELSIUS

 * =Non NWS site. Station does not report precipitation (e.g. rain,
    snow, etc.), thunder, or fog.

DCZ001-MDZ009-015-VAZ040>042-051-053>054-141900-
WASHINGTON METRO

CITY           SKY/WX    TMP DP  RH WIND       PRES   REMARKS
WASHINGTON NAT PTSUNNY   41  16  36 NW21G31   29.88S
DULLES         PTSUNNY   37  17  44 NW12G22   29.89R
ANDREWS AFB    SUNNY     39  16  38 W20G25    29.86F
FT BELVOIR     MOSUNNY   40  16  37 NW15G28   29.88S
QUANTICO       MOSUNNY   43  19  38 N18       29.89R
COLLEGE PARK*  PTSUNNY   37  17  44 NW13G18   29.89R
LEESBURG*      CLOUDY    37  21  52 N12       29.89F
MANASSAS*      MOSUNNY   41  17  38 NW18G28   29.88F
GAITHERSBURG*  CLOUDY    39  17  41 VRB6      29.87S

$$

MDZ006>007-011-014-141900-
BALTIMORE METRO

CITY           SKY/WX    TMP DP  RH WIND       PRES   REMARKS
BWI AIRPORT    MOSUNNY   37  16  42 NW12G22   29.88R
MD SCIENCE CTR   N/A     39  17  41 MISG      29.88R
MARTIN STATE   PTSUNNY   37  21  52 W17G28    29.90R WCI  28
ANNAPOLIS      SUNNY     39  18  42 NW14G31   29.88R
FORT MEADE*    MOSUNNY   36  19  51 NW13G20   29.91R WCI  27

$$

MDZ012-015-019>023-141900-
MARYLAND EASTERN SHORE

CITY           SKY/WX    TMP DP  RH WIND       PRES   REMARKS
OCEAN CITY     MOSUNNY   43  28  55 N21G31    29.82R
SALISBURY      SUNNY     42  27  55 NW23G31   29.82R
BAY BRIDGE AP* SUNNY     39  19  45 NW15G29   29.87S
CAMBRIDGE*     CLOUDY    41  27  56 NW18      29.85R
EASTON*        MOSUNNY   41  21  45 NW17G25   29.90R

$$

MDZ017>025-141900-
SOUTHERN MARYLAND

CITY           SKY/WX    TMP DP  RH WIND       PRES   REMARKS
PATUXENT RIVER MOSUNNY   43  24  47 NW26G32   29.84R
ST INIGOES     SUNNY     46  24  42 NW9G22    29.83S
LEONARDTOWN*   SUNNY     41  25  52 NW10G24   29.85S

$$

MDZ003>005-141900-
NORTH CENTRAL MARYLAND

CITY           SKY/WX    TMP DP  RH WIND       PRES   REMARKS
FREDERICK*     PTSUNNY   39  10  30 W14G22    29.92R
HAGERSTOWN APT PTSUNNY   33  16  49 NW21      29.87R WCI  21
WESTMINSTER*   MOSUNNY   34  19  55 NW9G16    29.85R WCI  26

$$

MDZ501>502-141900-
WESTERN MARYLAND

CITY           SKY/WX    TMP DP  RH WIND       PRES   REMARKS
OAKLAND*       CLOUDY    19  16  86 NW9       29.73F WCI   9
CUMBERLAND*    PTSUNNY   32  19  59 N9        29.93R WCI  24

$$

VAZ025>031-141900-
SHENANDOAH VALLEY

CITY           SKY/WX    TMP DP  RH WIND       PRES   REMARKS
WINCHESTER*    PTSUNNY   36  18  48 NW15G24   29.86S WCI  26
FRONT ROYAL*   PTSUNNY   37  18  44 MISG      29.85F
LURAY*         CLOUDY    41  19  42 N3        29.84S
NEW MARKET*    PTSUNNY   39  17  41 W3        29.83S
STAUNTON*      PTSUNNY   40  19  42 W7        29.85R
WAYNESBORO*    MOSUNNY   39  19  43 NW6       29.83R

$$

WVZ021-048>050-054>055-141900-
EASTERN WEST VIRGINIA PANHANDLE

CITY           SKY/WX    TMP DP  RH WIND       PRES   REMARKS
MARTINSBURG    PTSUNNY   34  16  47 NW9G23    29.87S WCI  27
PETERSBURG*    CLOUDY    35  19  52 W16       29.88S WCI  24

$$

VAZ036>039-050-141900-
CENTRAL FOOTHILLS

CITY           SKY/WX    TMP DP  RH WIND       PRES   REMARKS
CHARLOTTESVILL SUNNY     45  21  38 NW5       29.84R
CULPEPER*      FAIR      43  17  35 N14G21    29.87F
ORANGE*        PTSUNNY   45  21  39 NW9       29.83F
GORDONSVILLE*  SUNNY     45  20  37 CALM      29.84S
WARRENTON*     SUNNY     43  15  32 N15G21    29.86F

$$

VAZ055>057-141900-
NORTH AND CENTRAL PIEDMONT

CITY           SKY/WX    TMP DP  RH WIND       PRES   REMARKS
FREDERICKSBRG* SUNNY     42  25  50 N13G20    29.86S
STAFFORD*      SUNNY     40  20  46 N16G24    29.91S

$$

NCZ024-NYZ072-PAZ021-071-VAZ022-071-141900-
OTHER REGIONAL OBSERVATIONS

CITY           SKY/WX    TMP DP  RH WIND       PRES   REMARKS
NEW YORK CITY  SUNNY     31  15  52 VRB7G22   29.78R
PHILADELPHIA   MOSUNNY   34  19  54 NW9G20    29.85R WCI  27
PITTSBURGH     PTSUNNY   27  14  58 N10       29.93F WCI  17
ROANOKE        MOSUNNY   43  21  41 NW13      29.88R
RICHMOND       CLOUDY    52  23  32 NW10      29.83R
RALEIGH        MOSUNNY   55  24  30 W13G18    29.85F

$$

ANZ530>537-141900-
MARINE OBSERVATIONS

STATION/POSITION TIME  TEMP    WIND        PRES
                       AIR SEA DIR/SP/G
                 (UTC) (F)     (DEG/KT/KT) (MB)
THOMAS PT LIGHT  1800   37 45  330/ 15/ 17   N/A
BALT KEY BRIDGE  1742   37     310/ 19/ 24 1011.5R
COVE POINT       1742   40     350/ 27/ 29 1011.0F
LEWISETTA        1742   44 43  340/ 16/ 20 1010.4R
SOLOMONS ISLAND  1742   42 46  320/ 19/ 25 1009.9R
PINEY POINT      1742          360/ 21/ 25   N/A

$$




USA.gov is the U.S. government's official web portal to all federal, state and local government web resources and services.